[[{"header":{"parameterUnit":"m.s-1","parameterCategory":1,"la1":30.2991,"la2":30.254,"lo1":-89.0895,"lo2":-89.0444,"dy":0.0017,"dx":0.0017,"nx":28,"ny":28,"refTime":"2023-04-12T21:00:00:Z","depth":0,"parameterNumber":2,"parameterNumberName":"U-component_of_WINDS"},"data":[0,0,0,0,0,0,0,0,0,0,0,0,0,0,0,0,0,0,0,0,0,0,0,0,0,0,0,0,0,0,0,0,0,0,0,0,0,0,0,0,0,0,0,0,0,0,0,0,0,0,0,0,0,0,0,0,0,0,-8.8674,-8.8681,0,-8.9275,-8.9282,-8.9288,-8.928,-8.9272,-8.9264,-8.9256,-8.9876,-8.9899,-8.9923,0,0,0,0,0,0,0,0,0,0,0,0,0,-8.7524,-8.7545,-8.8673,-8.8681,-8.8689,-8.9274,-8.9282,-8.929,-8.9281,-8.9271,-8.9262,-8.9252,-8.9868,-8.9896,-8.9925,0,0,0,0,0,0,0,0,0,0,0,0,0,-8.8064,-8.7552,-8.8672,-8.8755,-8.8768,-8.9272,-8.9282,-8.9292,-8.9283,-8.9271,-8.9259,-8.9248,-8.9858,-8.9893,-8.9929,-9.0392,0,0,-9.0039,-9.0054,0,0,0,0,0,0,0,0,-8.8033,-8.8106,-8.8735,-8.875,-8.8766,-8.919,-8.9104,-8.9661,-8.9286,-8.9088,-8.9256,-8.9242,-8.9657,-8.9709,-8.9848,-9.0421,-9.0447,-9.0042,-9.0064,-9.0079,-9.0089,0,0,0,0,0,0,0,-8.7996,-8.808,-8.8911,-8.8744,-8.8763,-8.8763,-8.8827,-8.9209,-8.9433,-8.9104,-8.9105,-8.9176,-8.9663,-8.9814,-8.9863,-9.0456,-9.0041,-9.0073,-9.0095,-9.0109,-9.1446,-9.1459,0,0,0,0,0,0,-8.7941,-8.8049,-8.8892,-8.8929,-8.8362,-8.8794,-8.8865,-8.9066,-8.9429,-8.9472,-8.9186,-8.9173,-8.9758,-8.9821,-8.9885,-9.0457,-9.0079,-9.0112,-9.0133,-9.1432,-9.1449,-9.1464,0,0,0,0,0,0,-8.7916,-8.8016,-8.8868,-8.849,-8.8598,-8.8826,-8.9053,-8.9084,-8.9234,-8.949,-8.953,-8.9298,-8.9751,-8.9834,-9.0267,-9.0478,-9.0129,-9.0161,-9.1416,-9.1437,-9.1456,-9.1601,0,0,0,0,0,0,-8.7883,-8.8007,-8.8184,-8.8494,-8.8619,-8.9239,-8.9065,-8.9105,-8.9296,-8.9286,-8.9606,-8.9648,-8.9748,-9.0213,-9.0303,-9.0521,-9.0189,-9.1398,-9.1425,-9.145,-9.1578,-9.1624,-9.1663,0,0,0,0,0,-8.7842,-8.82,-8.8193,-8.8295,-8.8844,-8.9251,-8.9323,-8.943,-8.9313,-8.9495,-8.9659,-8.9638,-9.0439,-9.0258,-9.0358,-9.0591,-9.1385,-9.1417,-9.1448,-9.1559,-9.1615,-9.1662,0,0,0,0,0,0,-8.791,-8.8242,-8.8238,-8.8707,-8.8951,-8.9249,-8.9481,-8.9484,-8.9768,-8.9747,-8.9868,-8.9941,-9.0375,-9.0525,-9.0317,-9.1061,-9.0898,-9.0951,-9.0948,-9.1003,-9.1045,-9.1002,-9.0219,0,0,0,0,0,-8.7978,-8.828,-8.8554,-8.8942,-8.9064,-8.9252,-8.9433,-8.9494,-8.9752,-8.9856,-9.0052,-9.0305,-9.0615,-9.0816,-9.1114,-9.1597,-9.1671,-9.1807,-9.1849,-9.1883,-9.193,-9.2203,-9.2269,-9.1567,-9.1567,-9.1566,0,0,-8.8125,-8.8344,-8.8527,-8.8961,-8.9157,-8.947,-8.9339,-8.9673,-8.9908,-8.9907,-9.033,-9.0483,-9.0773,-9.1235,-9.1448,-9.1374,-9.2139,-9.1923,-9.1948,-9.1977,-9.2242,-9.2309,-9.2368,-9.1588,-9.1584,-9.1581,0,0,-8.8554,-8.8747,-8.9094,-8.9294,-8.9593,-8.9716,-8.9798,-9.0098,-9.02,-9.0625,-9.0633,-9.0913,-9.1441,-9.1651,-9.1826,-9.2336,-9.2329,-9.2429,-9.2653,-9.2918,-9.2974,-9.3024,-9.3213,-9.3278,-9.2473,-9.2473,-9.2474,0,-8.87,-8.9169,-8.9272,-8.9611,-8.9804,-8.9816,-9.0171,-9.036,-9.0741,-9.0876,-9.0785,-9.1453,-9.1648,-9.2163,-9.2288,-9.2426,-9.253,-9.2396,-9.2957,-9.3008,-9.3056,-9.3238,-9.3308,-9.2484,-9.2483,-9.2482,-9.2481,0,-8.9336,-8.9662,-8.9906,-9.0276,-9.0495,-9.084,-9.0998,-9.1208,-9.125,-9.1383,-9.1819,-9.2054,-9.2403,-9.2528,-9.2571,-9.3051,-9.2997,-9.293,-9.277,-9.3132,-9.3305,-9.3375,-9.2499,-9.2495,-9.2492,-9.249,0,0,-8.9828,-9.025,-9.0339,-9.0509,-9.0841,-9.1096,-9.1441,-9.1782,-9.1964,-9.2225,-9.2523,-9.2971,-9.2913,-9.3112,-9.3179,-9.3411,-9.3809,-9.3318,-9.3327,-9.3407,-9.436,-9.4413,-9.4491,-9.3803,-9.3817,-9.3828,-9.4338,0,-9.0296,-9.0912,-9.1016,-9.1556,-9.1862,-9.1878,-9.2181,-9.2419,-9.2552,-9.2832,-9.2979,-9.3298,-9.3193,-9.3315,-9.3544,-9.3711,-9.4003,-9.3675,-9.4087,-9.4101,-9.4021,-9.4581,-9.4637,-9.5107,-9.4405,-9.4417,-9.4425,0,-9.0926,-9.1207,-9.1778,-9.2073,-9.2205,-9.2475,-9.2799,-9.3064,-9.3335,-9.3416,-9.364,-9.3681,-9.4045,-9.3863,-9.4369,-9.4144,-9.4318,-9.4426,-9.4447,-9.4495,-9.429,-9.4651,-9.5259,-9.5332,-9.4531,-9.4523,-9.4515,0,-9.1236,-9.1756,-9.2167,-9.231,-9.2663,-9.2853,-9.3009,-9.3268,-9.3468,-9.375,-9.3882,-9.4202,-9.438,-9.4629,-9.4757,-9.4612,-9.5258,-9.5084,-9.534,-9.5338,-9.5481,-9.5472,-9.6133,-9.5581,-9.5579,-9.5578,-9.5576,0,-9.1754,-9.2104,-9.2311,-9.2565,-9.2959,-9.3075,-9.3463,-9.3615,-9.3846,-9.4131,-9.4163,-9.4431,-9.458,-9.4871,-9.4972,-9.5381,-9.5458,-9.5538,-9.5563,-9.554,-9.5531,-9.5661,-9.5635,-9.5597,-9.5593,-9.5589,-9.5586,0,-9.2169,-9.2321,-9.2771,-9.3068,-9.3151,-9.3429,-9.3685,-9.3933,-9.4064,-9.4426,-9.4517,-9.4726,-9.507,-9.522,-9.5643,-9.5712,-9.6181,-9.6178,-9.6091,-9.6101,-9.6351,-9.6328,-9.7125,-9.7238,-9.6603,-9.6609,-9.6614,0,-9.2492,-9.2763,-9.3089,-9.3283,-9.3445,-9.3755,-9.396,-9.4084,-9.4297,-9.4628,-9.4838,-9.5182,-9.5465,-9.6015,-9.6206,-9.6531,-9.6541,-9.6797,-9.659,-9.6561,-9.6555,-9.654,-9.6571,-9.6837,-9.6844,-9.6849,-9.6853,0,-9.3053,-9.3116,-9.3408,-9.3731,-9.3974,-9.4233,-9.4487,-9.4644,-9.4808,-9.5046,-9.5398,-9.5618,-9.6051,-9.6396,-9.6733,-9.6896,-9.6907,-9.6916,-9.6994,-9.6977,-9.6919,-9.6962,-9.6202,-9.6899,-9.6894,-9.6891,-9.6888,-9.6886,-9.3438,-9.3682,-9.3951,-9.4278,-9.4482,-9.4719,-9.4969,-9.5133,-9.5428,-9.5791,-9.5846,-9.6224,-9.6493,-9.6947,-9.7123,-9.7423,-9.736,-9.7471,-9.7501,-9.7528,-9.7548,-9.6864,-9.7484,-9.7482,-9.7481,-9.7481,-9.748,0,-9.4007,-9.4181,-9.448,-9.4836,-9.5094,-9.5076,-9.5357,-9.5576,-9.5908,-9.6156,-9.6435,-9.6843,-9.7177,-9.7394,-9.7733,-9.7932,-9.7945,-9.8018,-9.8008,-9.8047,-9.758,-9.7483,-9.8002,-9.8002,-9.8001,-9.8001,-9.8001,-9.8001,-9.4334,-9.4748,-9.4842,-9.5359,-9.5531,-9.5902,-9.6065,-9.6285,-9.6485,-9.6939,-9.7217,-9.7355,-9.7594,-9.7951,-9.8259,-9.8314,-9.8441,-9.8518,-9.8572,-9.8133,-9.8079,-9.8027,-9.7937,-9.8543,-9.8544,-9.9015,-9.902,-9.9023]},{"header":{"parameterUnit":"m.s-1","parameterCategory":1,"la1":30.2991,"la2":30.254,"lo1":-89.0895,"lo2":-89.0444,"dy":0.0017,"dx":0.0017,"nx":28,"ny":28,"refTime":"2023-04-12T21:00:00:Z","depth":0,"parameterNumber":3,"parameterNumberName":"V-component_of_WINDS"},"data":[0,0,0,0,0,0,0,0,0,0,0,0,0,0,0,0,0,0,0,0,0,0,0,0,0,0,0,0,0,0,0,0,0,0,0,0,0,0,0,0,0,0,0,0,0,0,0,0,0,0,0,0,0,0,0,0,0,0,-7.4643,-7.4639,0,-7.4262,-7.4258,-7.4254,-7.3931,-7.3928,-7.3924,-7.3921,-7.3522,-7.3514,-7.3507,0,0,0,0,0,0,0,0,0,0,0,0,0,-7.5081,-7.5075,-7.4644,-7.4639,-7.4634,-7.4263,-7.4258,-7.4253,-7.3932,-7.3928,-7.3924,-7.392,-7.3524,-7.3515,-7.3506,0,0,0,0,0,0,0,0,0,0,0,0,0,-7.4815,-7.5073,-7.4645,-7.443,-7.4407,-7.4264,-7.4258,-7.4251,-7.3933,-7.3928,-7.3922,-7.3918,-7.3527,-7.3516,-7.3505,-7.3542,0,0,-7.3471,-7.3467,0,0,0,0,0,0,0,0,-7.4831,-7.4799,-7.4466,-7.4444,-7.4418,-7.4139,-7.4265,-7.4013,-7.3934,-7.4113,-7.3921,-7.3915,-7.3731,-7.3703,-7.3642,-7.3523,-7.3506,-7.347,-7.3464,-7.3459,-7.3456,0,0,0,0,0,0,0,-7.485,-7.4814,-7.4492,-7.4462,-7.4432,-7.4348,-7.4305,-7.4216,-7.3955,-7.4097,-7.4072,-7.4032,-7.3716,-7.3654,-7.3631,-7.35,-7.3471,-7.3461,-7.3454,-7.345,-7.3385,-7.3389,0,0,0,0,0,0,-7.4903,-7.4831,-7.4505,-7.4481,-7.4616,-7.4345,-7.4296,-7.4234,-7.3956,-7.3908,-7.4037,-7.4019,-7.3675,-7.3644,-7.3615,-7.3635,-7.3459,-7.3449,-7.3442,-7.338,-7.3386,-7.3391,0,0,0,0,0,0,-7.4913,-7.4877,-7.452,-7.4649,-7.4598,-7.4343,-7.4276,-7.4229,-7.4166,-7.3911,-7.3861,-7.4022,-7.367,-7.3631,-7.3562,-7.3617,-7.3444,-7.3434,-7.3374,-7.3382,-7.3389,-7.368,0,0,0,0,0,0,-7.4927,-7.4883,-7.4897,-7.4652,-7.4592,-7.4478,-7.4279,-7.4226,-7.4149,-7.4121,-7.3883,-7.3838,-7.3663,-7.358,-7.3551,-7.3599,-7.3425,-7.3368,-7.3377,-7.3386,-7.3664,-7.3696,-7.3724,0,0,0,0,0,-7.4944,-7.4994,-7.49,-7.4862,-7.4606,-7.4482,-7.4447,-7.4246,-7.4155,-7.4165,-7.4,-7.3846,-7.3617,-7.3576,-7.354,-7.3586,-7.3363,-7.3375,-7.3385,-7.3651,-7.369,-7.3723,0,0,0,0,0,0,-7.5249,-7.4958,-7.485,-7.4823,-7.468,-7.4428,-7.4434,-7.4295,-7.4172,-7.4151,-7.3904,-7.3853,-7.381,-7.369,-7.365,-7.3603,-7.3469,-7.3474,-7.3683,-7.3718,-7.3747,-7.3776,-7.3416,0,0,0,0,0,-7.5314,-7.5241,-7.4989,-7.4989,-7.4923,-7.4693,-7.4631,-7.4488,-7.4329,-7.4266,-7.4095,-7.3944,-7.3836,-7.377,-7.3658,-7.3646,-7.3585,-7.3659,-7.3689,-7.3714,-7.372,-7.3698,-7.3726,-7.3427,-7.3427,-7.3427,0,0,-7.5446,-7.5277,-7.5246,-7.5046,-7.4918,-7.4844,-7.4643,-7.4574,-7.4515,-7.4254,-7.4178,-7.4048,-7.3861,-7.382,-7.3793,-7.3719,-7.379,-7.3728,-7.3751,-7.3742,-7.3713,-7.3741,-7.3767,-7.3435,-7.3434,-7.3432,0,0,-7.5647,-7.5515,-7.5498,-7.5374,-7.5184,-7.5029,-7.5026,-7.4794,-7.4698,-7.4619,-7.442,-7.4344,-7.4166,-7.4039,-7.3952,-7.4103,-7.3954,-7.4073,-7.4228,-7.421,-7.4233,-7.4253,-7.4302,-7.4323,-7.408,-7.4081,-7.4081,0,-7.5833,-7.5717,-7.5506,-7.5448,-7.5363,-7.5126,-7.5103,-7.4992,-7.4775,-7.472,-7.4641,-7.4409,-7.4267,-7.419,-7.4227,-7.4166,-7.4149,-7.4098,-7.4248,-7.4265,-7.428,-7.4324,-7.4343,-7.4096,-7.4094,-7.4093,-7.4091,0,-7.5954,-7.5876,-7.5884,-7.5682,-7.5598,-7.5559,-7.5337,-7.5277,-7.5141,-7.4994,-7.4913,-7.4734,-7.4579,-7.4551,-7.4418,-7.4453,-7.4412,-7.4295,-7.4154,-7.4328,-7.4364,-7.438,-7.4118,-7.4113,-7.4108,-7.4104,0,0,-7.6337,-7.6017,-7.6023,-7.5926,-7.5698,-7.5631,-7.5579,-7.5429,-7.538,-7.5237,-7.5183,-7.5037,-7.4924,-7.4826,-7.4675,-7.4661,-7.4785,-7.4542,-7.4534,-7.459,-7.4806,-7.4895,-7.4918,-7.4686,-7.4688,-7.469,-7.482,0,-7.6498,-7.6394,-7.6201,-7.6156,-7.6078,-7.585,-7.5803,-7.5655,-7.5516,-7.5425,-7.5269,-7.5167,-7.503,-7.4968,-7.4943,-7.4776,-7.4824,-7.4764,-7.4628,-7.4626,-7.4679,-7.4937,-7.5031,-7.5163,-7.4834,-7.4836,-7.4838,0,-7.6673,-7.6545,-7.6494,-7.6267,-7.6226,-7.6189,-7.6033,-7.5952,-7.5777,-7.5676,-7.5566,-7.5401,-7.5327,-7.5202,-7.5094,-7.5058,-7.499,-7.4899,-7.4899,-7.4876,-7.4741,-7.4918,-7.52,-7.5219,-7.4859,-7.4858,-7.4856,0,-7.6953,-7.6767,-7.6711,-7.6636,-7.6371,-7.6348,-7.6236,-7.6056,-7.5978,-7.5841,-7.5786,-7.5643,-7.5563,-7.5453,-7.5252,-7.518,-7.5164,-7.5023,-7.5073,-7.5079,-7.5078,-7.508,-7.5351,-7.5042,-7.5042,-7.5042,-7.5041,0,-7.7151,-7.7128,-7.6833,-7.6799,-7.6763,-7.6539,-7.6509,-7.6374,-7.6216,-7.6147,-7.5941,-7.588,-7.562,-7.5527,-7.5369,-7.5301,-7.5267,-7.5179,-7.5137,-7.5196,-7.5207,-7.5146,-7.513,-7.5047,-7.5046,-7.5045,-7.5044,0,-7.7457,-7.726,-7.7182,-7.6938,-7.6875,-7.686,-7.6647,-7.6602,-7.645,-7.6365,-7.6332,-7.6092,-7.5971,-7.576,-7.5579,-7.5472,-7.5434,-7.5364,-7.5494,-7.5468,-7.5528,-7.5524,-7.5766,-7.5784,-7.5471,-7.5474,-7.5477,0,-7.7596,-7.7572,-7.7325,-7.7265,-7.7161,-7.7069,-7.6987,-7.6764,-7.6686,-7.6484,-7.6462,-7.6326,-7.6205,-7.6022,-7.5828,-7.5687,-7.5609,-7.5704,-7.5587,-7.5645,-7.5605,-7.5608,-7.5602,-7.573,-7.5735,-7.5739,-7.5742,0,-7.7861,-7.7763,-7.7656,-7.7513,-7.7422,-7.7298,-7.7163,-7.7125,-7.687,-7.6793,-7.6668,-7.6575,-7.639,-7.6255,-7.6086,-7.5964,-7.5809,-7.5781,-7.5783,-7.5842,-7.5917,-7.5872,-7.5563,-7.5775,-7.5772,-7.5769,-7.5768,-7.5766,-7.8083,-7.805,-7.787,-7.7755,-7.7631,-7.7509,-7.7453,-7.7294,-7.7188,-7.7021,-7.6895,-7.6779,-7.6598,-7.6355,-7.6242,-7.6144,-7.6073,-7.608,-7.608,-7.6084,-7.6105,-7.5936,-7.6113,-7.6112,-7.6111,-7.611,-7.6109,0,-7.8334,-7.8207,-7.8104,-7.7922,-7.7831,-7.7696,-7.7538,-7.7469,-7.7371,-7.7218,-7.7103,-7.6958,-7.6825,-7.6621,-7.6471,-7.6432,-7.6356,-7.6399,-7.6398,-7.6371,-7.618,-7.619,-7.6463,-7.6463,-7.6463,-7.6462,-7.6462,-7.6462,-7.8454,-7.8389,-7.827,-7.8139,-7.8009,-7.7897,-7.7817,-7.7701,-7.7577,-7.7425,-7.7315,-7.7184,-7.7008,-7.6843,-7.6713,-7.6656,-7.6608,-7.6674,-7.6594,-7.6418,-7.6385,-7.6354,-7.6362,-7.6666,-7.6667,-7.6792,-7.6793,-7.6794]}]]